Weather History for Hot Springs, VA

Change the Weather History Date:

Saturday, October 26, 2013

  Actual Average Record
Temperature  
Mean Temperature 32 °F -  
Max Temperature 44 °F 55 °F 68 °F (1998)
Min Temperature 21 °F 39 °F 21 °F (2013)
Degree Days  
Heating Degree Days 32    
Moisture  
Dew Point 23 °F    
Average Humidity 68    
Maximum Humidity 100    
Minimum Humidity 34    
Precipitation  
Precipitation 0.00 in - - ()
Sea Level Pressure  
Sea Level Pressure 30.13 in    
Wind  
Wind Speed 11 mph (West)    
Max Wind Speed 23 mph    
Max Gust Speed 34 mph    
Visibility 10 miles    
Events      
Averages and records for this station are not official NWS values.
T = Trace of Precipitation, MM = Missing Value Source: NWS Daily Summary

Daily Weather History Graph

Daily Weather History Graph

Search for Another Location

Airport:

Trip Planner

Search our weather history database for the weather conditions in past years. The results will help you decide how hot, cold, wet, or windy it might be!

Date:

Astronomy

Oct. 26, 2013 Rise Set
Actual Time 7:38 AM EDT 6:26 PM EDT
Civil Twilight 7:12 AM EDT 6:53 PM EDT
Nautical Twilight 6:41 AM EDT 7:24 PM EDT
Astronomical Twilight 6:10 AM EDT 7:55 PM EDT
Moon No Moon Rise 1:53 PM EDT (10/26)
Length of Visible Light 11h 41m
Length of Day
10h 48m
Waning Gibbous, 53% of the Moon is Illuminated
Oct 26
Waning Gibbous
Oct 26
Last Quarter
Nov 3
New
Nov 10
First Quarter
Nov 17
Full

Hourly Weather History & Observations

Time (EDT) Temp. Windchill Dew Point Humidity Pressure Visibility Wind Dir Wind Speed Gust Speed Precip Events Conditions
12:15 AM 26.6 °F 18.2 °F 23.0 °F 86% 30.29 in 10.0 mi West 8.1 mph - N/A   Clear
12:35 AM 26.6 °F 19.1 °F 24.8 °F 93% 30.28 in 10.0 mi West 6.9 mph - N/A   Clear
12:55 AM 26.6 °F 18.2 °F 24.8 °F 93% 30.28 in 10.0 mi West 8.1 mph - N/A   Clear
1:15 AM 26.6 °F 18.2 °F 24.8 °F 93% 30.27 in 10.0 mi West 8.1 mph - N/A   Clear
1:35 AM 26.6 °F 18.2 °F 24.8 °F 93% 30.27 in 10.0 mi West 8.1 mph - N/A   Clear
1:55 AM 26.6 °F 18.2 °F 24.8 °F 93% 30.26 in 10.0 mi West 8.1 mph - N/A   Clear
2:15 AM 26.6 °F 20.0 °F 24.8 °F 93% 30.25 in 10.0 mi West 5.8 mph - N/A   Clear
2:35 AM 26.6 °F 19.1 °F 24.8 °F 93% 30.25 in 10.0 mi West 6.9 mph - N/A   Clear
2:55 AM 26.6 °F 18.2 °F 24.8 °F 93% 30.24 in 10.0 mi West 8.1 mph - N/A   Clear
3:15 AM 24.8 °F 17.9 °F 24.8 °F 100% 30.24 in 10.0 mi West 5.8 mph - N/A   Clear
3:35 AM 24.8 °F 16.9 °F 24.8 °F 100% 30.23 in 10.0 mi West 6.9 mph - N/A   Clear
3:55 AM 24.8 °F 17.9 °F 23.0 °F 93% 30.22 in 10.0 mi West 5.8 mph - N/A   Clear
4:15 AM 24.8 °F 16.1 °F 23.0 °F 93% 30.22 in 10.0 mi West 8.1 mph - N/A   Clear
4:35 AM 24.8 °F 16.1 °F 24.8 °F 100% 30.21 in 10.0 mi West 8.1 mph - N/A   Clear
4:55 AM 24.8 °F 16.1 °F 24.8 °F 100% 30.21 in 10.0 mi West 8.1 mph - N/A   Clear
5:15 AM 23.0 °F 14.7 °F 21.2 °F 93% 30.21 in 10.0 mi WSW 6.9 mph - N/A   Clear
5:35 AM 21.2 °F 12.6 °F 21.2 °F 100% 30.20 in 10.0 mi WSW 6.9 mph - N/A   Clear
5:55 AM 21.2 °F 11.7 °F 21.2 °F 100% 30.20 in 10.0 mi WSW 8.1 mph - N/A   Clear
6:15 AM 23.0 °F 13.9 °F 21.2 °F 93% 30.20 in 10.0 mi WSW 8.1 mph - N/A   Clear
6:35 AM 24.8 °F 17.9 °F 23.0 °F 93% 30.20 in 10.0 mi SSW 5.8 mph - N/A   Clear
6:55 AM 24.8 °F 17.9 °F 23.0 °F 93% 30.19 in 10.0 mi WSW 5.8 mph - N/A   Clear
7:15 AM 23.0 °F 14.7 °F 21.2 °F 93% 30.19 in 10.0 mi WSW 6.9 mph - N/A   Clear
7:35 AM 24.8 °F 14.6 °F 23.0 °F 93% 30.19 in 10.0 mi WSW 10.4 mph - N/A   Clear
7:55 AM 24.8 °F 15.3 °F 24.8 °F 100% 30.19 in 10.0 mi WSW 9.2 mph - N/A   Clear
8:15 AM 24.8 °F 14.6 °F 24.8 °F 100% 30.18 in 10.0 mi WSW 10.4 mph - N/A   Clear
8:35 AM 26.6 °F 16.8 °F 24.8 °F 93% 30.17 in 10.0 mi West 10.4 mph - N/A   Clear
8:55 AM 26.6 °F 16.2 °F 24.8 °F 93% 30.18 in 10.0 mi West 11.5 mph - N/A   Clear
9:15 AM 26.6 °F 16.2 °F 24.8 °F 93% 30.18 in 10.0 mi West 11.5 mph - N/A   Clear
9:35 AM 26.6 °F 15.7 °F 24.8 °F 93% 30.18 in 10.0 mi West 12.7 mph - N/A   Clear
9:55 AM 28.4 °F 17.0 °F 24.8 °F 86% 30.17 in 10.0 mi West 15.0 mph - N/A   Clear
10:15 AM 30.2 °F 20.8 °F 24.8 °F 80% 30.17 in 10.0 mi West 11.5 mph - N/A   Clear
10:35 AM 30.2 °F 19.8 °F 24.8 °F 80% 30.17 in 10.0 mi West 13.8 mph - N/A   Clear
10:55 AM 30.2 °F - 24.8 °F 80% 30.16 in - North - - N/A   Unknown
11:15 AM 32.0 °F 20.8 °F 24.8 °F 75% 30.16 in - West 17.3 mph 24.2 mph N/A   Unknown
11:35 AM 33.8 °F 24.8 °F 24.8 °F 70% 30.15 in 10.0 mi West 12.7 mph 23.0 mph N/A   Unknown
11:55 AM 33.8 °F 25.8 °F 24.8 °F 70% 30.14 in 10.0 mi West 10.4 mph - N/A   Clear
12:15 PM 35.6 °F 26.6 °F 24.8 °F 65% 30.14 in 10.0 mi West 13.8 mph - N/A   Clear
12:35 PM 35.6 °F 27.1 °F 24.8 °F 65% 30.13 in 10.0 mi West 12.7 mph - N/A   Clear
12:55 PM 37.4 °F 28.9 °F 23.0 °F 56% 30.12 in 10.0 mi West 13.8 mph 19.6 mph N/A   Clear
1:15 PM 39.2 °F 30.8 °F 21.2 °F 49% 30.11 in 10.0 mi West 15.0 mph 19.6 mph N/A   Clear
1:35 PM 39.2 °F 30.2 °F 21.2 °F 49% 30.10 in 10.0 mi WSW 17.3 mph 21.9 mph N/A   Clear
1:55 PM 41.0 °F 32.5 °F 19.4 °F 42% 30.09 in 10.0 mi West 17.3 mph 21.9 mph N/A   Clear
2:15 PM 42.8 °F 34.8 °F 19.4 °F 39% 30.09 in 10.0 mi WSW 17.3 mph - N/A   Clear
2:35 PM 42.8 °F 34.8 °F 17.6 °F 36% 30.08 in 10.0 mi West 17.3 mph 25.3 mph N/A   Clear
2:55 PM 42.8 °F 35.8 °F 19.4 °F 39% 30.07 in 10.0 mi WSW 13.8 mph 25.3 mph N/A   Clear
3:15 PM 44.6 °F 37.8 °F 19.4 °F 37% 30.07 in 10.0 mi WSW 15.0 mph 20.7 mph N/A   Clear
3:35 PM 44.6 °F 38.1 °F 19.4 °F 37% 30.07 in 10.0 mi WSW 13.8 mph 19.6 mph N/A   Clear
3:55 PM 44.6 °F 37.8 °F 17.6 °F 34% 30.07 in 10.0 mi WSW 15.0 mph 20.7 mph N/A   Clear
4:15 PM 44.6 °F 38.1 °F 19.4 °F 37% 30.07 in 10.0 mi WSW 13.8 mph 18.4 mph N/A   Clear
4:35 PM 44.6 °F 37.8 °F 19.4 °F 37% 30.06 in 10.0 mi West 15.0 mph - N/A   Clear
4:55 PM 42.8 °F 36.2 °F 19.4 °F 39% 30.05 in 10.0 mi WSW 12.7 mph - N/A   Mostly Cloudy
5:15 PM 42.8 °F 37.0 °F 19.4 °F 39% 30.05 in 10.0 mi WSW 10.4 mph 17.3 mph N/A   Overcast
5:35 PM 42.8 °F 35.8 °F 19.4 °F 39% 30.05 in 10.0 mi WSW 13.8 mph - N/A   Overcast
5:55 PM 42.8 °F 36.2 °F 19.4 °F 39% 30.04 in 10.0 mi WSW 12.7 mph - N/A   Overcast
6:15 PM 42.8 °F 36.6 °F 19.4 °F 39% 30.04 in 10.0 mi WSW 11.5 mph - N/A   Overcast
6:35 PM 42.8 °F 35.8 °F 17.6 °F 36% 30.03 in 10.0 mi WSW 13.8 mph - N/A   Overcast
6:55 PM 42.8 °F 35.4 °F 17.6 °F 36% 30.03 in 10.0 mi WSW 15.0 mph - N/A   Overcast
7:15 PM 42.8 °F 35.1 °F 19.4 °F 39% 30.03 in 10.0 mi West 16.1 mph 20.7 mph N/A   Overcast
7:35 PM 42.8 °F 35.8 °F 19.4 °F 39% 30.02 in 10.0 mi WSW 13.8 mph 20.7 mph N/A   Overcast
7:55 PM 42.8 °F 35.1 °F 19.4 °F 39% 30.02 in 10.0 mi West 16.1 mph - N/A   Overcast
8:15 PM 42.8 °F 35.1 °F 19.4 °F 39% 30.02 in 10.0 mi West 16.1 mph 23.0 mph N/A   Overcast
8:35 PM 42.8 °F 34.8 °F 21.2 °F 42% 30.02 in 10.0 mi West 17.3 mph - N/A   Overcast
8:55 PM 42.8 °F 35.8 °F 21.2 °F 42% 30.01 in 10.0 mi West 13.8 mph - N/A   Overcast
9:15 PM 42.8 °F 34.8 °F 21.2 °F 42% 30.01 in 10.0 mi WSW 17.3 mph 21.9 mph N/A   Overcast
9:35 PM 42.8 °F 34.5 °F 23.0 °F 46% 30.01 in 10.0 mi West 18.4 mph 24.2 mph N/A   Overcast
9:55 PM 42.8 °F 35.1 °F 24.8 °F 49% 30.01 in 10.0 mi West 16.1 mph 24.2 mph N/A   Overcast
10:15 PM 42.8 °F 33.8 °F 24.8 °F 49% 30.01 in 10.0 mi West 21.9 mph 29.9 mph N/A   Overcast
10:35 PM 41.0 °F 31.6 °F 24.8 °F 53% 30.01 in 10.0 mi West 20.7 mph 29.9 mph N/A   Overcast
10:55 PM 41.0 °F 31.4 °F 26.6 °F 57% 30.01 in 10.0 mi West 21.9 mph 32.2 mph N/A   Overcast
11:15 PM 41.0 °F 31.9 °F 28.4 °F 61% 30.01 in 10.0 mi West 19.6 mph 33.4 mph N/A   Overcast
11:35 PM 41.0 °F 31.1 °F 28.4 °F 61% 30.00 in 10.0 mi West 23.0 mph 34.5 mph N/A   Overcast
11:55 PM 41.0 °F 32.2 °F 28.4 °F 61% 30.01 in 10.0 mi WNW 18.4 mph 33.4 mph N/A   Overcast